STARLINK-31932, 59929

Orbit data source: Space-Track

STARLINK-31932, 59929 is a payload satellite owned by SpaceX/Seattle (US) in LEO that was launched on Sat, 01 Jun 2024 UTC via an FALCON 9 launch vehicle from the Air Force Eastern Test Range (AFETR). Payload-class satellites include a variety of spacecraft equipped with specific instruments for various scientific and technological missions. These include communications satellites like Starlink; space stations such as the ISS; scientific satellites like the Hubble; Earth observation satellites from companies like Planet Labs, Umbra, and HawkEye 360; GPS; miniature CubeSats for education and research; and military/defense satellites.

Loading next visibility...
Identifier
59929, 2024-106H
Orbit
LEO
Last TLE update
16 hours ago
Origin
Manufacturer
SpaceX/Seattle
Mission
Operational spacecraft
Bus & Motor
STARLINK V2M, Unknown motor
Mass
730 kg wet, ~700 kg dry
Launch date (UTC)
2024-06-01 (11 months ago)
Launch vehicle
FALCON 9
Launch site
Air Force Eastern Test Range (AFETR)
Object type
Payload
Rocket body
Debris
Shape & HBR
Unknown
Radar Cross Section
Large (>1 m²)

Expand to show TLE details & history

TLE from 16 hours ago
0 STARLINK-31932
1 59929U 24106H   25128.62938399 -.00061068  00000-0 -22308-2 0  9994
2 59929  43.0030 252.1328 0001171 258.2633 101.8087 15.27538718 53907
Epoch: 2025-05-08T15:06Z
Definitive object data (Epoch: 2025-05-08T15:06:18.776Z)
Latitude
-0.00005°
Longitude
158.85738°
Altitude
483.113 km
Speed
7.626 km/s
True Right ascension
16h 48m 31s
True Declination
0° 00' 00"
Sunlit
Object was in full shadow at TLE epoch
Visualization TLE readout
Latitude
10.17588°
Longitude
166.18272°
Altitude
482.751 km
Speed
7.627 km/s
Apparent Right ascension
20h 20m 03s
Apparent Declination
-36° 33' 57"
Sunlit
Object is in full shadow
Visualization observer readout
Local Sidereal Time
15:00:43
Azimuth
124.724° SE
Elevation
-15.874°
Doppler factor
1
Orbital elements
Apogee altitude
485.921 km
Perigee altitude
484.314 km
Semi-major axis
6,863.254 km
Eccentricity
0.0001171
Inclination
43.003°
RAAN
252.1328°
Arg. of periapsis
258.2633°
True anomaly
101.82183°
Mean anomaly
101.8087°
Eccentric anomaly
101.81527°
Mean motion
3.81723 °/min
BSTAR
-0.0022308
Orbital period
94.31 mins
Loading maneuver chart data...
Loading SW <> Apogee altitude chart data...
Loading historical data...
Loading historical data...
Loading historical data...
Loading historical data...
Loading historical data...
Loading historical data...
Loading historical data...

STARLINK-31932 Visibility forecast

Observer location: undefined°, undefined°

Span
Click to sort rows by Start time (UTC) header in descending order
Start Az.
Max El. time (UTC)
Max El. Az.
Max El.
End time (UTC)
End Az.
5 mins2025-05-09 11:44:49.661Z215.876° SW2025-05-09 11:46:49.661Z135.82° SSE36.949°2025-05-09 11:49:49.661Z79.274° E
6 mins2025-05-09 13:22:49.661Z273.908° WNW2025-05-09 13:25:49.661Z17.469° NNE39.693°2025-05-09 13:28:49.661Z70.293° E
5 mins2025-05-09 15:02:49.661Z298.01° NW2025-05-09 15:04:49.661Z16.911° NNE40.271°2025-05-09 15:07:49.661Z87.083° E
5 mins2025-05-09 16:41:49.661Z271.759° WNW2025-05-09 16:43:49.661Z197.539° SSW38.306°2025-05-09 16:46:49.661Z130.995° SE
|